Find Starlink 5490

NORAD ID: 57254 Int'l Des: 2023-094 Owner: SPXS Country: US Constellation: starlink operational
LEOCIRCULAR

当前视图

正在加载3D地球...

About Starlink 5490

Starlink 5490 (NORAD 57254) is a starlink constellation satellite (v1.5) launched Jul 7, 2023 by SPXS of US. It operates in LEO, CIRCULAR orbit with a mass of 305.00 kg.

关于 Starlink 5490

正在加载描述...

即将过境

Passes for default location (London). Set your location on the main map for personalized predictions.

高度历史

Loading altitude history...

两行轨道根数

1 57254U 23094AN 26193.97343160 -.00000382 00000-0 -43166-5 0 9995
2 57254 42.9959 32.0840 0002802 68.0196 292.0953 15.27586826166409
Epoch: Jul 12, 2026 • Age: 33 hours

当前状态

高度 481.5 km
远地点 / 近地点 N/A
速度 7.63 km/s
星下点 5.71°N, 27.08°W
发射日期 Jul 7, 2023
运行时间 3 years
类型 internet

技术详情

分类 Payload
质量 305.00 kg
干质量 290.00 kg
总质量 305.00 kg
长度 0.20 m
直径 2.80 m
跨度 9.00 m
形状 Box + pan
制造商 SPXS
平台类型 Starlink
阶段状态 In Orbit
所有者/国家 SPXS/US

Most Searched